Wind_Speed
27 28 28 28 28 29 29 31 31 31 30 31 32 32 31 31 31 32 33 34 34 34 34 35 36 37 38 38 39 40 40 41 42 44 45 46 47 48 47 47 47 47 48 49
29 29 29 29 29 29 30 31 31 31 30 32 32 31 29 29 30 31 33 33 33 33 32 34 35 36 37 37 38 39 40 40 40 42 43 45 46 47 47 46 46 47 48 49
30 30 29 29 29 29 30 31 31 32 31 32 32 30 28 28 29 31 32 32 32 33 34 34 35 36 36 36 37 37 39 40 40 41 43 44 45 46 47 45 46 46 47 48
31 31 30 31 31 31 31 31 31 32 32 31 31 31 27 28 28 30 31 31 31 32 34 34 34 35 35 35 35 36 38 39 39 40 42 43 44 45 46 46 46 45 45 46
32 31 31 31 31 32 31 31 31 31 32 32 30 32 29 28 29 29 30 30 31 32 33 33 34 34 34 34 35 36 37 39 39 39 41 41 43 44 46 47 47 47 46 45
32 32 32 31 31 31 32 31 31 32 32 32 30 31 30 28 29 29 30 31 31 32 32 32 32 33 33 33 34 36 37 38 39 39 40 40 41 43 44 45 45 45 45 45
33 32 32 32 31 31 31 31 32 32 32 32 31 31 31 29 29 29 31 32 32 32 31 32 32 32 33 33 33 35 35 36 37 38 39 39 40 41 43 44 44 44 45 45
34 33 32 32 32 32 31 30 31 32 33 32 31 31 31 31 30 30 31 32 32 31 31 31 31 31 32 32 33 33 35 35 36 37 38 39 40 41 42 44 44 44 44 43
34 34 33 33 32 32 32 31 30 32 33 32 31 31 31 31 31 31 31 31 31 30 31 31 31 30 31 31 31 32 34 34 35 36 38 38 39 40 41 43 44 43 43 43
36 35 33 33 33 32 32 32 31 31 32 33 32 32 32 31 31 32 33 32 31 30 30 30 31 30 30 30 30 31 33 34 35 36 37 38 39 40 41 41 42 41 41 43
35 35 35 33 32 32 32 32 31 31 31 33 34 33 33 32 31 33 34 33 32 31 30 30 31 31 31 31 31 31 32 34 35 36 37 37 38 39 40 41 41 42 41 43
35 35 36 35 33 33 33 32 31 31 31 32 33 33 32 33 33 33 33 33 33 33 31 31 31 30 30 31 31 31 32 33 34 35 36 37 38 39 40 41 41 42 43 44
35 35 35 35 34 34 33 32 32 32 32 31 32 32 32 32 33 33 33 32 32 32 32 31 31 29 29 29 30 31 32 33 34 35 36 37 38 40 40 40 40 42 44 44
35 35 35 35 35 35 33 32 32 33 33 32 31 31 31 32 32 33 33 32 31 30 31 30 30 29 29 29 30 30 31 32 34 35 35 36 38 39 41 41 41 41 42 43
35 35 34 34 34 34 34 33 33 33 33 33 32 31 32 33 32 33 33 32 31 30 30 30 30 30 30 30 30 30 30 31 32 33 35 36 38 39 40 41 41 42 43 43
35 36 35 34 33 32 32 32 32 33 33 34 33 33 33 34 34 33 33 32 32 31 31 31 31 30 30 30 30 30 30 30 31 32 34 36 37 39 39 41 42 41 43 44
34 35 35 33 32 32 32 32 32 33 32 33 34 33 33 33 33 33 33 32 32 31 31 31 30 30 29 30 30 29 29 29 30 31 33 35 36 37 38 40 42 42 43 44
33 33 33 33 32 32 32 32 32 33 33 33 33 33 32 33 33 34 33 33 33 32 31 31 31 30 29 29 29 29 29 29 30 31 33 34 34 36 37 39 41 41 42 42
31 31 32 32 32 33 31 32 32 33 33 33 33 33 33 33 33 34 34 34 33 32 32 31 30 29 29 29 28 28 29 29 29 30 31 33 34 35 37 38 39 40 41 41
30 29 30 31 33 33 31 31 31 33 32 31 32 32 32 32 32 32 33 33 32 31 31 31 30 29 29 29 29 29 29 29 29 28 29 31 33 34 35 37 38 40 40 40
30 30 30 31 32 32 31 31 31 31 32 32 32 33 33 32 33 32 32 32 31 31 30 30 29 29 28 28 28 28 28 28 28 28 29 30 32 33 34 36 37 38 39 39
31 31 31 31 31 31 31 32 31 31 31 32 32 33 33 33 34 33 32 31 30 30 30 29 28 28 27 27 27 27 28 28 28 28 29 29 30 31 33 35 36 36 37 39
32 32 32 32 32 32 32 32 31 31 32 32 32 32 33 33 33 32 31 29 29 29 29 28 28 27 27 27 27 27 27 28 28 28 29 29 30 31 31 33 34 36 37 38
32 32 32 32 33 33 33 33 33 32 32 32 32 32 32 32 32 32 30 29 29 28 28 27 27 27 27 27 27 27 27 28 29 29 29 29 29 30 31 31 33 34 36 37
33 33 33 32 32 32 32 32 33 33 33 33 33 32 32 31 31 30 29 29 28 28 27 27 27 27 26 26 26 26 27 27 28 29 29 29 29 30 30 31 31 32 34 35
33 33 33 32 32 32 32 32 32 33 33 34 33 32 31 31 30 29 28 28 28 27 26 26 26 27 27 26 26 26 27 27 28 28 28 28 28 28 28 29 30 31 32 33
Wind_Direction
300 299 299 299 297 296 296 296 295 294 292 290 291 290 287 281 279 279 279 277 275 274 274 272 269 267 267 266 264 262 259 257 253 250 249 249 247 246 245 246 246 246 246 245
301 302 302 300 298 297 297 297 298 296 294 292 293 291 289 282 279 281 281 278 275 275 274 273 272 270 269 266 264 262 259 256 254 251 250 250 248 246 246 246 246 245 244 244
302 304 303 301 299 297 297 298 299 299 296 295 295 292 289 283 281 282 282 279 276 276 275 275 273 273 272 267 265 263 259 256 254 252 251 251 250 247 245 245 244 244 242 242
302 303 302 301 300 299 298 298 299 300 299 297 297 296 292 286 286 286 284 281 278 277 277 278 277 275 273 269 266 263 261 257 255 253 252 251 250 248 246 245 244 242 242 242
302 302 302 301 301 300 299 299 299 300 301 299 299 297 293 291 289 288 286 284 282 280 279 279 279 278 276 272 268 264 263 260 257 255 253 252 251 248 246 244 243 242 241 242
301 301 300 301 301 300 300 299 299 300 302 301 300 298 295 294 292 290 288 285 284 281 280 280 279 279 278 276 272 267 265 261 257 256 254 252 251 248 245 243 243 242 242 242
301 299 299 300 299 299 299 301 302 303 303 303 301 300 299 297 295 293 291 286 285 285 282 281 280 279 279 277 275 270 266 263 259 256 254 251 250 248 245 243 243 243 242 242
299 298 298 298 299 299 299 301 301 302 302 302 301 300 299 297 297 294 291 288 287 287 284 282 282 281 280 278 277 272 266 263 261 258 254 251 249 248 246 244 244 243 243 242
297 296 296 296 297 298 299 298 298 299 299 300 299 299 298 298 297 294 292 290 288 286 284 282 281 281 281 279 276 273 267 264 262 259 255 251 249 247 247 246 245 243 243 240
297 296 295 294 294 295 296 297 297 297 298 298 298 297 298 299 297 294 294 292 288 285 284 282 281 280 279 277 275 273 269 264 262 260 256 252 248 247 247 247 245 245 246 243
298 297 295 293 293 295 295 295 294 293 294 297 297 298 297 298 298 296 295 294 290 287 285 284 281 279 278 277 274 272 269 266 263 261 257 253 249 248 249 247 246 245 245 245
300 298 296 293 293 293 294 294 293 292 293 294 295 296 297 296 295 294 294 293 291 287 285 285 284 281 279 278 276 272 269 267 264 261 257 254 251 249 249 248 247 245 246 245
299 298 298 295 294 293 293 292 290 290 291 293 295 296 296 294 293 293 294 294 292 289 287 285 284 284 279 276 275 273 270 268 265 262 258 255 253 250 249 249 249 248 247 246
297 296 297 296 294 294 294 293 291 290 290 291 293 294 293 292 293 293 294 293 291 290 289 287 284 283 280 277 274 274 273 269 266 263 259 255 252 251 251 250 249 248 249 249
297 294 295 294 292 291 291 291 289 290 290 290 292 292 291 291 292 293 293 293 292 289 288 287 286 281 277 275 274 273 272 271 268 264 260 256 254 254 253 252 251 251 251 250
296 294 294 293 291 290 289 290 290 290 289 290 292 291 291 290 291 292 293 293 292 290 288 287 286 282 278 276 275 273 271 270 269 267 264 260 257 255 255 254 254 255 254 252
298 298 296 295 293 290 290 292 292 292 291 291 292 293 291 290 290 290 290 291 292 290 288 287 285 282 279 277 275 274 272 271 269 267 265 263 260 257 256 255 255 257 256 254
300 299 298 297 295 292 293 292 293 293 291 292 292 292 291 290 289 288 289 290 290 290 289 289 285 283 281 280 277 275 275 274 271 268 266 264 262 259 258 256 256 256 256 255
300 301 300 300 298 296 295 296 295 294 292 292 292 291 291 290 289 288 288 289 289 290 290 290 287 283 282 280 279 277 276 275 273 271 268 265 263 260 258 257 256 255 255 255
302 301 300 300 297 296 298 297 296 295 294 293 291 290 290 290 289 288 287 288 288 288 289 289 287 284 282 281 279 278 275 275 274 272 270 266 264 262 260 258 256 255 254 254
301 300 299 300 297 295 297 296 296 295 296 294 292 291 290 290 290 290 289 289 289 289 288 288 288 285 283 281 280 278 276 275 275 276 274 271 268 264 262 260 258 256 255 254
301 301 300 300 299 298 297 295 295 294 294 294 294 292 291 291 290 290 290 290 290 289 288 287 287 285 284 282 280 279 277 276 276 277 276 274 272 268 265 263 261 259 257 256
298 300 299 299 299 298 296 295 295 293 292 293 293 292 293 292 291 290 290 289 289 289 288 287 286 285 284 283 282 279 278 277 277 278 278 277 274 272 269 266 264 263 261 261
298 297 298 298 299 299 297 295 294 292 292 292 291 292 291 291 290 289 289 290 290 289 287 285 285 285 284 283 282 280 280 280 280 281 280 279 276 273 272 271 269 266 264 263
298 298 298 298 300 299 297 295 293 291 290 291 290 290 289 288 289 289 288 289 289 289 288 286 284 284 284 283 282 281 282 282 282 283 282 281 279 275 273 271 269 267 264 264
295 297 298 298 299 300 298 297 295 293 291 291 291 289 288 287 287 287 286 287 287 287 286 284 284 284 284 283 282 283 283 284 284 284 282 282 280 277 274 271 269 267 265 265
Height
5705 5703 5699 5696 5693 5690 5687 5685 5682 5680 5677 5674 5672 5669 5667 5665 5663 5662 5661 5659 5658 5658 5657 5655 5654 5654 5653 5652 5652 5652 5653 5655 5658 5661 5664 5667 5671 5676 5680 5685 5689 5693 5696 5700
5699 5696 5693 5689 5686 5683 5680 5678 5675 5673 5669 5666 5664 5661 5659 5657 5655 5653 5651 5650 5649 5648 5647 5646 5644 5643 5642 5641 5641 5641 5642 5644 5646 5649 5652 5655 5659 5663 5667 5672 5676 5680 5684 5688
5692 5690 5686 5683 5680 5677 5674 5671 5668 5665 5662 5659 5655 5654 5652 5649 5647 5645 5643 5641 5640 5639 5638 5636 5635 5633 5632 5631 5630 5631 5631 5633 5635 5637 5640 5643 5646 5650 5655 5659 5664 5668 5672 5676
5686 5683 5679 5676 5673 5670 5667 5664 5661 5657 5653 5650 5648 5644 5645 5642 5640 5637 5635 5633 5631 5630 5628 5627 5625 5623 5622 5621 5620 5621 5621 5622 5624 5626 5628 5631 5635 5639 5643 5647 5652 5656 5661 5665
5679 5676 5672 5669 5666 5663 5660 5657 5654 5649 5646 5643 5640 5636 5637 5634 5632 5630 5627 5625 5623 5622 5620 5617 5615 5614 5612 5611 5611 5611 5611 5612 5613 5615 5618 5620 5624 5627 5631 5635 5640 5645 5649 5654
5672 5668 5665 5662 5659 5655 5652 5650 5646 5642 5638 5635 5633 5630 5628 5626 5624 5622 5620 5617 5615 5613 5611 5609 5607 5605 5603 5602 5601 5601 5601 5602 5603 5605 5607 5609 5613 5616 5620 5625 5629 5633 5637 5642
5665 5661 5658 5655 5652 5649 5645 5642 5638 5633 5630 5628 5626 5622 5621 5619 5616 5614 5611 5609 5607 5605 5603 5601 5598 5596 5595 5593 5592 5592 5592 5593 5593 5595 5597 5600 5603 5606 5610 5614 5618 5622 5626 5631
5656 5654 5650 5646 5643 5640 5637 5634 5631 5627 5623 5621 5618 5615 5615 5612 5609 5606 5603 5601 5599 5597 5595 5593 5590 5588 5586 5585 5584 5583 5583 5584 5584 5586 5588 5590 5593 5596 5600 5604 5608 5612 5615 5620
5647 5645 5643 5639 5635 5633 5629 5627 5624 5620 5616 5614 5611 5610 5608 5605 5602 5598 5596 5594 5592 5590 5587 5585 5582 5580 5578 5577 5576 5575 5575 5576 5576 5577 5579 5582 5584 5587 5591 5594 5598 5601 5605 5610
5639 5636 5634 5631 5629 5626 5623 5620 5617 5613 5609 5606 5605 5603 5600 5597 5594 5591 5588 5585 5584 5582 5579 5577 5575 5573 5571 5569 5568 5567 5566 5567 5568 5569 5571 5573 5575 5578 5581 5584 5588 5592 5596 5600
5630 5628 5626 5623 5620 5618 5616 5613 5608 5605 5602 5599 5596 5598 5593 5590 5587 5584 5581 5578 5575 5574 5572 5569 5567 5565 5563 5561 5560 5559 5559 5559 5560 5561 5562 5564 5566 5568 5571 5575 5578 5582 5586 5590
5622 5619 5617 5615 5613 5609 5607 5604 5601 5599 5596 5592 5589 5591 5586 5582 5579 5576 5573 5570 5567 5565 5563 5561 5559 5557 5555 5553 5552 5551 5551 5551 5552 5552 5554 5555 5557 5559 5562 5565 5568 5571 5575 5579
5613 5610 5607 5606 5605 5602 5599 5596 5593 5590 5588 5585 5582 5584 5578 5574 5571 5568 5565 5562 5560 5557 5555 5553 5550 5548 5547 5545 5544 5544 5543 5543 5543 5544 5545 5546 5548 5550 5552 5555 5558 5561 5565 5569
5604 5601 5599 5597 5594 5591 5589 5587 5584 5581 5579 5577 5576 5574 5571 5566 5563 5560 5558 5555 5552 5549 5547 5545 5543 5540 5539 5537 5536 5536 5535 5535 5535 5535 5536 5537 5539 5541 5543 5545 5548 5551 5555 5558
5595 5593 5590 5588 5585 5582 5581 5579 5576 5573 5571 5569 5568 5565 5562 5558 5555 5553 5550 5547 5544 5542 5539 5537 5535 5533 5531 5530 5528 5528 5527 5526 5526 5527 5528 5529 5530 5532 5534 5536 5539 5541 5544 5547
5586 5583 5581 5579 5576 5573 5572 5570 5568 5565 5563 5560 5558 5556 5553 5550 5547 5544 5541 5539 5536 5533 5531 5529 5527 5525 5523 5522 5520 5519 5519 5518 5518 5519 5519 5520 5521 5523 5524 5526 5529 5531 5533 5536
5576 5573 5570 5569 5566 5564 5563 5563 5559 5556 5554 5552 5549 5548 5544 5541 5538 5535 5533 5530 5528 5525 5523 5520 5518 5516 5515 5513 5512 5511 5510 5510 5510 5510 5510 5511 5512 5513 5515 5516 5518 5520 5522 5524
5568 5564 5560 5558 5557 5555 5557 5553 5550 5547 5545 5543 5540 5538 5536 5533 5530 5527 5524 5522 5519 5517 5515 5512 5510 5508 5507 5505 5504 5503 5502 5502 5501 5501 5502 5502 5503 5504 5505 5506 5508 5509 5511 5513
5560 5556 5553 5550 5547 5545 5547 5545 5541 5538 5536 5534 5531 5529 5526 5523 5521 5519 5516 5513 5511 5508 5506 5504 5502 5500 5498 5497 5496 5495 5494 5494 5493 5492 5492 5493 5493 5494 5495 5496 5497 5499 5500 5501
5553 5549 5546 5542 5539 5537 5539 5535 5531 5529 5527 5525 5521 5519 5517 5514 5512 5511 5508 5505 5502 5500 5497 5495 5493 5492 5490 5488 5488 5487 5486 5486 5485 5484 5483 5483 5484 5484 5485 5486 5487 5488 5489 5490
5545 5542 5538 5535 5530 5529 5529 5526 5523 5522 5519 5515 5512 5510 5507 5505 5503 5501 5498 5496 5494 5491 5489 5487 5485 5483 5482 5480 5479 5479 5478 5477 5477 5476 5475 5474 5474 5474 5475 5475 5476 5477 5478 5479
5536 5533 5530 5527 5523 5524 5520 5517 5515 5512 5509 5506 5503 5501 5498 5496 5493 5491 5489 5487 5485 5482 5480 5478 5477 5475 5474 5472 5471 5470 5470 5469 5468 5467 5466 5465 5465 5464 5464 5465 5465 5466 5467 5468
5529 5526 5522 5520 5518 5514 5511 5508 5505 5503 5500 5497 5494 5492 5489 5487 5484 5482 5480 5478 5476 5474 5472 5470 5469 5467 5466 5465 5463 5462 5461 5460 5460 5458 5457 5456 5455 5455 5454 5454 5455 5455 5456 5457
5521 5517 5514 5511 5509 5506 5502 5499 5497 5494 5491 5488 5485 5483 5480 5478 5476 5474 5472 5469 5467 5465 5464 5462 5461 5459 5458 5457 5456 5454 5453 5452 5451 5450 5449 5447 5446 5446 5445 5445 5445 5445 5445 5446
5512 5509 5505 5502 5500 5497 5494 5490 5488 5485 5482 5479 5476 5473 5471 5469 5467 5465 5463 5461 5459 5457 5456 5454 5453 5452 5450 5449 5448 5447 5445 5444 5443 5442 5440 5439 5437 5436 5436 5435 5435 5435 5435 5435
5503 5500 5497 5494 5491 5487 5485 5481 5478 5475 5472 5470 5467 5464 5462 5460 5458 5456 5454 5453 5451 5449 5448 5446 5445 5444 5443 5441 5440 5439 5437 5436 5435 5433 5431 5430 5429 5428 5427 5426 5426 5425 5425 5425